Monroe, MI

7:46 AM EDT on March 23, 2017 (GMT -0400)
Custer

Weather History for KTTF - November, 2011

Change the Weather History Date:

Wednesday, November 16, 2011

  Actual Average Record
Temperature  
Mean Temperature 42 °F -  
Max Temperature 48 °F 46 °F 69 °F (1953)
Min Temperature 35 °F 31 °F 7 °F (1933)
Degree Days  
Heating Degree Days 24    
Moisture  
Dew Point 34 °F    
Average Humidity 71    
Maximum Humidity 100    
Minimum Humidity 37    
Precipitation  
Precipitation 0.00 in - - ()
Sea Level Pressure  
Sea Level Pressure 29.91 in    
Wind  
Wind Speed 7 mph (WNW)    
Max Wind Speed 14 mph    
Max Gust Speed 23 mph    
Visibility 8 miles    
Events Fog    
Averages and records for this station are not official NWS values.
T = Trace of Precipitation, MM = Missing Value Source: NWS Daily Summary

Daily Weather History Graph

Daily Weather History Graph

Search for Another Location

Airport or City:

Trip Planner

Search our weather history database for the weather conditions in past years. The results will help you decide how hot, cold, wet, or windy it might be!

Date:

Astronomy

Nov. 16, 2011 Rise Set
Actual Time 7:24 AM EST 5:12 PM EST
Civil Twilight 6:54 AM EST 5:42 PM EST
Nautical Twilight 6:20 AM EST 6:15 PM EST
Astronomical Twilight 5:47 AM EST 6:48 PM EST
Moon 10:25 PM EST (11/16) 11:59 AM EST (11/16)
Length of Visible Light 10h 47m
Length of Day
9h 47m
Waning Gibbous, 70% of the Moon is Illuminated
Nov 16
Waning Gibbous
Nov 18
Last Quarter
Nov 25
New
Dec 2
First Quarter
Dec 10
Full

Hourly Weather History & Observations

Time (EST) Temp. Windchill Dew Point Humidity Pressure Visibility Wind Dir Wind Speed Gust Speed Precip Events Conditions
12:12 AM 48.2 °F - 48.2 °F 100% 29.81 in 7.0 mi South 3.5 mph - N/A   Clear
12:32 AM 46.4 °F 43.5 °F 46.4 °F 100% 29.80 in 7.0 mi South 5.8 mph - N/A   Clear
12:52 AM 46.4 °F 43.5 °F 46.4 °F 100% 29.81 in 7.0 mi SSW 5.8 mph - N/A   Mostly Cloudy
1:12 AM 48.2 °F - 48.2 °F 100% 29.80 in 7.0 mi South 4.6 mph - N/A   Scattered Clouds
1:32 AM 48.2 °F - 48.2 °F 100% 29.80 in 5.0 mi South 4.6 mph - N/A   Scattered Clouds
1:53 AM 46.4 °F 43.5 °F 46.4 °F 100% 29.79 in 4.0 mi South 5.8 mph - N/A   Mostly Cloudy
2:13 AM 46.4 °F 44.3 °F 46.4 °F 100% 29.79 in 3.0 mi SSW 4.6 mph - N/A   Mostly Cloudy
3:14 AM 44.6 °F - 44.6 °F 100% 29.78 in 0.2 mi Calm Calm - N/A Fog Fog
3:34 AM 46.4 °F - 46.4 °F 100% 29.79 in 0.8 mi Calm Calm - N/A   Overcast
3:54 AM 46.4 °F 44.3 °F 46.4 °F 100% 29.79 in 2.0 mi SSW 4.6 mph - N/A   Overcast
4:15 AM 48.2 °F - 48.2 °F 100% 29.79 in 2.5 mi West 3.5 mph - N/A   Overcast
4:35 AM 48.2 °F - 48.2 °F 100% 29.79 in 2.5 mi West 5.8 mph - N/A   Overcast
4:55 AM 48.2 °F - 48.2 °F 100% 29.79 in 2.5 mi West 8.1 mph - N/A   Mostly Cloudy
5:15 AM 48.2 °F - 48.2 °F 100% 29.80 in 2.5 mi West 4.6 mph - N/A   Scattered Clouds
5:30 AM 48.2 °F - 48.2 °F 100% 29.80 in 3.0 mi West 5.8 mph - N/A   Clear
5:50 AM 46.4 °F 43.5 °F 46.4 °F 100% 29.82 in 4.0 mi WSW 5.8 mph - N/A   Clear
6:11 AM 46.4 °F 43.5 °F 46.4 °F 100% 29.82 in 5.0 mi West 5.8 mph - N/A   Clear
6:31 AM 46.4 °F 43.5 °F 46.4 °F 100% 29.82 in 5.0 mi West 5.8 mph - N/A   Clear
7:11 AM 46.4 °F 43.5 °F 46.4 °F 100% 29.84 in 7.0 mi WNW 5.8 mph - N/A   Clear
7:31 AM 46.4 °F 42.9 °F 46.4 °F 100% 29.85 in 7.0 mi WNW 6.9 mph - N/A   Clear
7:52 AM 46.4 °F 44.3 °F 46.4 °F 100% 29.86 in 7.0 mi WNW 4.6 mph - N/A   Clear
8:12 AM 46.4 °F 43.5 °F 46.4 °F 100% 29.86 in 10.0 mi WNW 5.8 mph - N/A   Clear
8:32 AM 46.4 °F 42.9 °F 44.6 °F 93% 29.86 in 10.0 mi NW 6.9 mph - N/A   Clear
8:52 AM 46.4 °F 42.9 °F 44.6 °F 93% 29.87 in 10.0 mi NW 6.9 mph - N/A   Clear
9:12 AM 46.4 °F 43.5 °F 44.6 °F 93% 29.87 in 10.0 mi WNW 5.8 mph - N/A   Clear
9:33 AM 46.4 °F 41.9 °F 42.8 °F 87% 29.88 in 10.0 mi WNW 9.2 mph - N/A   Clear
9:53 AM 46.4 °F 40.7 °F 37.4 °F 71% 29.89 in 10.0 mi NW 12.7 mph - N/A   Clear
10:13 AM 46.4 °F 41.1 °F 37.4 °F 71% 29.90 in 10.0 mi WNW 11.5 mph 17.3 mph N/A   Clear
10:33 AM 46.4 °F 41.5 °F 35.6 °F 66% 29.91 in 10.0 mi NW 10.4 mph - N/A   Clear
10:53 AM 44.6 °F 38.4 °F 33.8 °F 66% 29.91 in 10.0 mi NW 12.7 mph 16.1 mph N/A   Clear
11:13 AM 44.6 °F 40.2 °F 33.8 °F 66% 29.91 in 10.0 mi NW 8.1 mph - N/A   Clear
11:34 AM 46.4 °F 41.1 °F 32.0 °F 57% 29.91 in 10.0 mi NW 11.5 mph - N/A   Clear
11:54 AM 46.4 °F 41.1 °F 30.2 °F 53% 29.90 in 10.0 mi NW 11.5 mph 16.1 mph N/A   Clear
12:14 PM 46.4 °F 41.5 °F 28.4 °F 50% 29.90 in 10.0 mi WNW 10.4 mph - N/A   Clear
12:34 PM 46.4 °F 41.9 °F 26.6 °F 46% 29.89 in 10.0 mi WNW 9.2 mph - N/A   Clear
12:54 PM 46.4 °F 41.1 °F 23.0 °F 40% 29.89 in 10.0 mi WNW 11.5 mph - N/A   Clear
1:15 PM 46.4 °F 41.1 °F 21.2 °F 37% 29.90 in 10.0 mi WNW 11.5 mph 21.9 mph N/A   Clear
1:35 PM 46.4 °F 41.1 °F 21.2 °F 37% 29.89 in 10.0 mi WNW 11.5 mph 17.3 mph N/A   Clear
1:55 PM 46.4 °F 41.9 °F 23.0 °F 40% 29.89 in 10.0 mi WNW 9.2 mph - N/A   Clear
2:15 PM 46.4 °F 40.7 °F 23.0 °F 40% 29.90 in 10.0 mi WNW 12.7 mph 16.1 mph N/A   Clear
2:35 PM 48.2 °F - 24.8 °F 40% 29.91 in 10.0 mi WNW 11.5 mph - N/A   Clear
2:50 PM 48.2 °F - 24.8 °F 40% 29.91 in 10.0 mi West 12.7 mph - N/A   Clear
3:11 PM 48.2 °F - 24.8 °F 40% 29.92 in 10.0 mi West 9.2 mph - N/A   Clear
3:31 PM 46.4 °F 41.5 °F 24.8 °F 43% 29.92 in 10.0 mi WNW 10.4 mph - N/A   Clear
3:51 PM 46.4 °F 41.1 °F 24.8 °F 43% 29.92 in 10.0 mi WNW 11.5 mph - N/A   Clear
4:11 PM 46.4 °F 41.1 °F 24.8 °F 43% 29.93 in 10.0 mi NW 11.5 mph - N/A   Clear
4:31 PM 46.4 °F 41.5 °F 26.6 °F 46% 29.94 in 10.0 mi West 10.4 mph - N/A   Clear
4:52 PM 44.6 °F 40.2 °F 26.6 °F 49% 29.95 in 10.0 mi WNW 8.1 mph - N/A   Clear
5:12 PM 44.6 °F 39.7 °F 26.6 °F 49% 29.96 in 10.0 mi WNW 9.2 mph - N/A   Clear
5:32 PM 44.6 °F 38.8 °F 21.2 °F 39% 29.97 in 10.0 mi WNW 11.5 mph 17.3 mph N/A   Clear
5:52 PM 42.8 °F 36.2 °F 21.2 °F 42% 29.98 in 10.0 mi NW 12.7 mph 17.3 mph N/A   Clear
6:12 PM 42.8 °F 36.6 °F 21.2 °F 42% 29.99 in 10.0 mi WNW 11.5 mph - N/A   Clear
6:32 PM 41.0 °F 33.5 °F 24.8 °F 53% 30.01 in 10.0 mi WNW 13.8 mph 19.6 mph N/A   Clear
6:53 PM 39.2 °F 31.2 °F 24.8 °F 56% 30.03 in 10.0 mi NW 13.8 mph 21.9 mph N/A   Clear
7:13 PM 39.2 °F 32.0 °F 24.8 °F 56% 30.04 in 10.0 mi WNW 11.5 mph - N/A   Clear
7:33 PM 37.4 °F 28.9 °F 24.8 °F 60% 30.04 in 10.0 mi WNW 13.8 mph 20.7 mph N/A   Clear
7:53 PM 37.4 °F 28.9 °F 23.0 °F 56% 30.04 in 10.0 mi NW 13.8 mph 23.0 mph N/A   Clear
8:13 PM 37.4 °F 29.3 °F 24.8 °F 60% 30.04 in 10.0 mi WNW 12.7 mph 19.6 mph N/A   Clear
8:34 PM 37.4 °F 29.8 °F 24.8 °F 60% 30.05 in 10.0 mi WNW 11.5 mph - N/A   Clear
8:54 PM 37.4 °F 29.3 °F 24.8 °F 60% 30.05 in 10.0 mi WNW 12.7 mph - N/A   Scattered Clouds
9:14 PM 37.4 °F 30.3 °F 24.8 °F 60% 30.05 in 10.0 mi WNW 10.4 mph 18.4 mph N/A   Clear
10:35 PM 35.6 °F 30.7 °F 24.8 °F 65% 30.05 in 10.0 mi NW 5.8 mph - N/A   Clear
10:55 PM 35.6 °F 30.7 °F 24.8 °F 65% 30.05 in 10.0 mi NW 5.8 mph - N/A   Scattered Clouds
11:15 PM 35.6 °F 31.7 °F 24.8 °F 65% 30.05 in 10.0 mi WNW 4.6 mph - N/A   Scattered Clouds
11:35 PM 35.6 °F 31.7 °F 26.6 °F 70% 30.06 in 10.0 mi West 4.6 mph - N/A   Scattered Clouds
11:55 PM 35.6 °F 31.7 °F 26.6 °F 70% 30.06 in 10.0 mi West 4.6 mph - N/A   Scattered Clouds